Regional Weather Roundup
Issued by NWS Cleveland, OH

Home | Current Version | Previous Version | Text Only | Print | Product List | Glossary Off
Versions: 1 2 3 4 5 6 7 8 9 10 11 12 13 14 15 16 17 18 19 20 21 22 23 24 25 26 27 28 29 30 31 32 33 34 35 36 37 38 39 40 41 42 43 44 45 46 47 48 49 50

000
ASUS41 KCLE 090110
RWRCLE
OHIO REGIONAL WEATHER ROUNDUP
NATIONAL WEATHER SERVICE CLEVELAND, OH
800 PM EST MON FEB 08 2016

NOTE: "FAIR" INDICATES FEW OR NO CLOUDS BELOW 12,000 FEET WITH NO
SIGNIFICANT WEATHER AND/OR OBSTRUCTIONS TO VISIBILITY.

OHZ001>008-015>018-024>027-034-035-043-044-090200-
   NORTHWEST OHIO

CITY           SKY/WX    TMP DP  RH WIND       PRES   REMARKS
DEFIANCE       CLOUDY    34  27  75 W10       29.65S WCI  26
FINDLAY        PTCLDY    32  25  75 W7        29.62S WCI  26
TOLEDO EXPRESS CLOUDY    33  25  72 W8        29.62R WCI  26
TOLEDO EXEC    CLOUDY    36  26  67 W10       29.62S
LIMA           MOCLDY    32  29  88 NW15      29.63R WCI  22
$$

OHZ009>014-019>023-028>033-038-089-090200-
   NORTHEAST OHIO

CITY           SKY/WX    TMP DP  RH WIND       PRES   REMARKS
CLE-HOPKINS    LGT SNOW  33  31  92 S3        29.62F FOG
CLE-LAKEFRONT  LGT SNOW  34  32  92 SW9       29.60S FOG     WCI  27
CUY CO. ARPT   LGT SNOW  34  32  93 W12       29.60S FOG     WCI  25
LORAIN-ELYRIA  LGT SNOW  33  30  88 W3        29.61S FOG
ASHTABULA      FLURRIES  33  31  92 W9        29.57F WCI  25
AKRON-CANTON   CLOUDY    31  29  92 SW6       29.60S WCI  25
WOOSTER        CLOUDY    31  29  92 CALM      29.60S FOG
MANSFIELD      MOCLDY    33  32  96 W9        29.60R WCI  25
YOUNGSTOWN     FLURRIES  33  30  88 W10       29.58S WCI  25
$$

OHZ042-051>053-060>062-070>072-077>081-090200-
  SOUTHWEST OHIO

CITY           SKY/WX    TMP DP  RH WIND       PRES   REMARKS
CINC-COVINGTON LGT SNOW  28  26  92 W17       29.72R VSB 1   WCI  16
CINC-LUNKEN    LGT SNOW  31  29  92 W15       29.74R FOG     WCI  20
HAMILTON       LGT SNOW  30  28  92 W12G21    29.73R FOG     WCI  20
DAYTON         CLOUDY    31  28  89 NW16      29.66S WCI  20
WRIGHT-PAT AFB LGT SNOW  33  31  92 W13       29.66R FOG     WCI  24
DAYTON GENERAL LGT SNOW  31  28  89 NW9       29.66R FOG     WCI  23
WILMINGTON     LGT SNOW  32  31  96 W6        29.65R FOG     WCI  26
$$

OHZ036-037-039>041-045>050-054>059-063>069-073>076-082>088-090200-
  CENTRAL AND SOUTHEAST OHIO

CITY           SKY/WX    TMP DP  RH WIND       PRES   REMARKS
COLUMBUS       CLOUDY    34  34 100 CALM      29.63S
OSU AIRPORT    CLOUDY    34  32  92 W7        29.63S WCI  28
BOLTON FIELD   CLOUDY    33  32  95 NW6       29.64S WCI  28
RICKENBACK AFB CLOUDY    34  32  95 W10       29.63S WCI  26
NEWARK         CLOUDY    34  31  88 CALM      29.63S FOG
MARION         PTCLDY    33  29  85 W3        29.62S
LANCASTER      MOCLDY    34  32  92 CALM      29.64R
ZANESVILLE     CLOUDY    35  33  92 CALM      29.62F FOG
NEW PHILLY     PTCLDY    31  30  96 CALM      29.62F FOG
$$



USA.gov is the U.S. government's official web portal to all federal, state and local government web resources and services.